Regional Weather Roundup
Issued by NWS

Home | Current Version | Previous Version | Graphics & Text | Print | Product List | Glossary Off
Versions: 1 2 3 4 5 6 7 8 9 10 11 12 13 14 15 16 17 18 19 20 21 22 23 24 25 26 27 28 29 30 31 32 33 34 35 36 37 38 39 40 41 42 43 44 45 46 47 48 49 50

000
ASUS43 KTOP 191859
RWRKS

WEATHER ROUNDUP FOR KANSAS
NATIONAL WEATHER SERVICE GOODLAND KS
200 PM CDT SAT APR 19 2014

NOTE:  "FAIR" INDICATES FEW OR NO CLOUDS BELOW 12,000 FEET WITH NO
SIGNIFICANT WEATHER AND/OR OBSTRUCTIONS TO VISIBILITY.

KSZ001>006-013>018-027>032-041>047-192000-
NORTHWEST KANSAS

CITY           SKY/WX    TMP DP  RH WIND       PRES   REMARKS
GOODLAND       PTSUNNY   70  46  42 NE21G28   29.97F
HAYS           PTSUNNY   81  52  36 S28G36    29.91F
HILL CITY      CLOUDY    78  46  32 SW9G17    29.91F
RUSSELL        PTSUNNY   81  49  32 S30G40    29.92F
$$

KSZ061>065-074>080-084>089-192000-
SOUTHWEST KANSAS

CITY           SKY/WX    TMP DP  RH WIND       PRES   REMARKS
DODGE CITY     PTSUNNY   74  46  36 S25       29.97S
ELKHART          N/A     78  43  28 SW14        N/A
GARDEN CITY    CLOUDY    75  44  33 SW15      29.96R
GREAT BEND     PTSUNNY   81  50  34 S30G39    29.93F
LIBERAL        CLOUDY    73  48  40 S21G30    30.00F
$$

KSZ066>073-081>083-090>101-192000-
SOUTHEAST KANSAS

CITY           SKY/WX    TMP DP  RH WIND       PRES   REMARKS
CHANUTE        PTSUNNY   76  46  34 S16G26    30.13F
COFFEYVILLE    MOSUNNY   75  45  34 S18G26    30.14F
HUTCHINSON     PTSUNNY   76  49  38 S25G32    30.01F
NEWTON         MOSUNNY   73  46  38 S25G32    30.07F
PARSONS        MOSUNNY   76  44  32 S14G24    30.14F
WICHITA INTL   MOSUNNY   78  48  34 S25G35    30.05F
WICHITA JABRA  MOSUNNY   78  48  34 S22G35    30.05F
WINFIELD       SUNNY     78  48  34 S23G31    30.08F
$$

KSZ007>012-019>026-033>040-048>060-102>105-192000-
NORTHEAST KANSAS

CITY           SKY/WX    TMP DP  RH WIND       PRES   REMARKS
CONCORDIA      MOSUNNY   77  49  37 S23G37    29.97F
EMPORIA        MOSUNNY   76  44  32 S22G33    30.07F
LAWRENCE       MOSUNNY   78  45  30 S20       30.11S
MANHATTAN      SUNNY     79  46  31 S22G32    30.02
OLATHE IND     MOSUNNY   75  46  35 S21G33    30.13F
OLATHE EXE     MOSUNNY   73  45  36 SW20G26   30.12F
SALINA         SUNNY     78  48  34 S26G37    29.99F
TOPEKA BILLARD SUNNY     77  44  30 S15G28    30.08F
TOPEKA FORBES  SUNNY     76  44  32 S21G31    30.09R
$$



USA.gov is the U.S. government's official web portal to all federal, state and local government web resources and services.